EW4538 Weather Reports


time (UTC)temp
C
wind
direction
speed
KPH
gust
KPH
rain 1hr
cm
rain 24hr
cm
rain mn
cm
humidity
%
barometer
mb
20260506104305 22 172 0.0 0.0 0.00 0.00 0.00 83 1008.7
20260506103304 22 172 0.0 4.8 0.00 0.00 0.00 83 1008.6
20260506101805 22 172 3.2 12.9 0.00 0.00 0.00 83 1008.4
20260506101304 23 186 3.2 4.8 0.00 0.00 0.00 83 1008.4
20260506100804 23 186 3.2 9.7 0.00 0.00 0.00 83 1008.3
20260506100304 23 185 8.0 16.1 0.00 0.00 0.00 83 1008.3
20260506094805 23 153 1.6 8.0 0.00 0.00 0.00 82 1008.2
20260506094304 23 163 8.0 12.9 0.00 0.00 0.00 82 1008.0
20260506093804 23 151 8.0 19.3 0.00 0.00 0.00 82 1007.9
20260506091804 23 163 8.0 16.1 0.00 0.00 0.00 81 1007.7
20260506091305 23 158 4.8 9.7 0.00 0.00 0.00 81 1007.7
20260506090805 23 158 4.8 12.9 0.00 0.00 0.00 81 1007.6
20260506090304 23 157 8.0 19.3 0.00 0.00 0.00 81 1007.5
20260506084804 23 166 9.7 19.3 0.00 0.00 0.00 81 1007.3
20260506084305 23 164 6.4 19.3 0.00 0.00 0.00 81 1007.5
20260506083804 23 179 4.8 14.5 0.00 0.00 0.00 81 1007.5
20260506081804 23 160 8.0 16.1 0.00 0.00 0.00 80 1007.6
20260506081305 23 171 11.3 22.5 0.00 0.00 0.00 80 1007.6
20260506080805 23 180 8.0 20.9 0.00 0.00 0.00 80 1007.5
20260506080305 23 187 8.0 22.5 0.00 0.00 0.00 80 1007.6
20260506073304 23 170 9.7 27.4 0.00 0.00 0.00 80 1007.8
20260506071804 23 174 9.7 20.9 0.00 0.00 0.00 80 1007.9
20260506071304 23 157 14.5 22.5 0.00 0.00 0.00 80 1008.1
20260506070804 23 170 14.5 24.1 0.00 0.00 0.00 81 1008.1
20260506070305 23 165 9.7 29.0 0.00 0.00 0.00 81 1008.1
20260506061804 23 160 17.7 29.0 0.00 0.00 0.00 81 1007.8
20260506061304 23 177 14.5 24.1 0.00 0.00 0.00 81 1007.8
20260506060805 23 174 11.3 22.5 0.00 0.00 0.00 81 1007.9
20260506050805 23 165 11.3 27.4 0.00 0.00 0.00 81 1007.9
20260506050305 23 160 20.9 27.4 0.00 0.00 0.00 81 1007.8
20260506044804 23 166 19.3 33.8 0.00 0.00 0.00 81 1007.8
20260506043804 23 160 14.5 29.0 0.00 0.00 0.00 80 1007.8
20260506043305 23 165 16.1 25.7 0.00 0.00 0.00 80 1007.7
20260506041804 23 166 17.7 27.4 0.00 0.00 0.00 80 1007.7
20260506041304 23 157 16.1 24.1 0.00 0.00 0.00 80 1007.7
20260506040304 24 166 12.9 32.2 0.00 0.00 0.00 79 1007.7
20260506034805 24 160 17.7 27.4 0.00 0.00 0.00 79 1007.5
20260506034305 24 158 19.3 29.0 0.00 0.00 0.00 78 1007.3
20260506033804 24 157 16.1 24.1 0.00 0.00 0.00 78 1007.2
20260506033304 24 161 17.7 29.0 0.00 0.00 0.00 78 1007.1
20260506031304 25 161 19.3 27.4 0.00 0.00 0.00 77 1007.0
20260506030804 25 157 14.5 22.5 0.00 0.00 0.00 77 1007.0
20260506030304 25 156 16.1 24.1 0.00 0.00 0.00 76 1006.8
20260506024304 25 157 14.5 22.5 0.00 0.00 0.00 76 1006.6
20260506023804 25 154 14.5 24.1 0.00 0.00 0.00 75 1006.5
20260506023304 25 156 14.5 25.7 0.00 0.00 0.00 75 1006.3
20260506021804 25 158 14.5 20.9 0.00 0.00 0.00 75 1006.1
20260506021304 25 160 14.5 22.5 0.00 0.00 0.00 75 1006.1
20260506020304 25 154 11.3 20.9 0.00 0.00 0.00 74 1006.0
20260506014804 25 159 14.5 20.9 0.00 0.00 0.00 73 1005.7
20260506014304 25 156 14.5 20.9 0.00 0.00 0.00 73 1005.5
20260506013804 25 159 16.1 20.9 0.00 0.00 0.00 72 1005.5
20260506013304 26 160 14.5 22.5 0.00 0.00 0.00 72 1005.5
20260506011804 26 156 16.1 22.5 0.00 0.00 0.00 71 1005.5
20260506011304 26 159 14.5 22.5 0.00 0.00 0.00 71 1005.5
20260506010805 26 154 14.5 22.5 0.00 0.00 0.00 71 1005.4
20260506004805 27 160 12.9 20.9 0.00 0.00 0.00 69 1005.5
20260506004304 27 170 16.1 24.1 0.00 0.00 0.00 68 1005.5
20260506003805 27 161 11.3 19.3 0.00 0.00 0.00 68 1005.5
20260506001804 27 169 14.5 22.5 0.00 0.00 0.00 67 1005.5
20260506001304 27 168 9.7 16.1 0.00 0.00 0.00 67 1005.6
20260506000305 27 159 11.3 22.5 0.00 0.00 0.00 66 1005.5
20260505234304 27 169 12.9 25.7 0.00 0.00 0.00 65 1005.4
20260505233304 28 174 14.5 27.4 0.00 0.00 0.00 64 1005.3
20260505231804 28 168 16.1 27.4 0.00 0.00 0.00 64 1005.0
20260505231304 28 163 20.9 27.4 0.00 0.00 0.00 64 1005.1
20260505230804 28 166 19.3 32.2 0.00 0.00 0.00 64 1005.1
20260505230304 28 171 16.1 32.2 0.00 0.00 0.00 64 1005.0
20260505224805 28 170 11.3 24.1 0.00 0.00 0.00 63 1005.1
20260505224304 28 171 14.5 29.0 0.00 0.00 0.00 63 1005.1
20260505223804 28 167 14.5 24.1 0.00 0.00 0.00 63 1005.0
20260505223304 28 180 11.3 25.7 0.00 0.00 0.00 62 1005.1
20260505221805 28 162 19.3 33.8 0.00 0.00 0.00 62 1004.9
20260505221304 28 168 17.7 29.0 0.00 0.00 0.00 61 1004.9
20260505220804 28 164 16.1 29.0 0.00 0.00 0.00 61 1004.9
20260505220304 28 163 14.5 27.4 0.00 0.00 0.00 61 1005.1
20260505214804 29 184 9.7 20.9 0.00 0.00 0.00 59 1005.1
20260505214304 29 181 16.1 27.4 0.00 0.00 0.00 58 1005.2
20260505213804 29 163 16.1 27.4 0.00 0.00 0.00 59 1005.3
20260505213304 29 167 14.5 33.8 0.00 0.00 0.00 59 1005.4
20260505211804 30 184 9.7 22.5 0.00 0.00 0.00 60 1005.4
20260505211304 29 177 16.1 33.8 0.00 0.00 0.00 59 1005.5
20260505210304 29 174 17.7 37.0 0.00 0.00 0.00 60 1005.7
20260505204804 28 169 12.9 27.4 0.00 0.00 0.00 61 1005.7
20260505204304 29 173 16.1 29.0 0.00 0.00 0.00 60 1005.8
20260505203304 28 159 20.9 37.0 0.00 0.00 0.00 61 1005.8
20260505201804 28 184 16.1 29.0 0.00 0.00 0.00 61 1006.2
20260505201304 28 167 16.1 29.0 0.00 0.00 0.00 60 1006.3
20260505200804 29 187 14.5 25.7 0.00 0.00 0.00 61 1006.5
20260505200305 28 154 17.7 33.8 0.00 0.00 0.00 61 1006.5
20260505194804 28 175 14.5 27.4 0.00 0.00 0.00 62 1006.7
20260505194304 28 182 14.5 27.4 0.00 0.00 0.00 62 1006.7
20260505193805 28 171 14.5 24.1 0.00 0.00 0.00 61 1006.8
20260505193304 28 165 11.3 29.0 0.00 0.00 0.00 62 1007.0
20260505191804 28 155 14.5 24.1 0.00 0.00 0.00 61 1007.1
20260505191304 28 159 8.0 14.5 0.00 0.00 0.00 62 1007.1
20260505190804 28 175 8.0 16.1 0.00 0.00 0.00 63 1007.2
20260505184804 27 209 8.0 14.5 0.00 0.00 0.00 64 1007.4
20260505184304 27 233 9.7 20.9 0.00 0.00 0.00 66 1007.5
20260505183804 27 223 9.7 16.1 0.00 0.00 0.00 65 1007.6
20260505183304 27 192 9.7 22.5 0.00 0.00 0.00 66 1007.6
20260505181804 26 164 16.1 22.5 0.00 0.00 0.00 67 1007.9
20260505181304 26 198 9.7 19.3 0.00 0.00 0.00 68 1008.0
20260505180804 26 206 8.0 14.5 0.00 0.00 0.00 70 1008.1
20260505180305 25 164 9.7 14.5 0.00 0.00 0.00 70 1008.1
20260505174804 25 196 11.3 19.3 0.00 0.00 0.00 72 1008.4
20260505174304 25 175 11.3 20.9 0.00 0.00 0.00 72 1008.4
20260505173804 25 169 9.7 22.5 0.00 0.00 0.00 72 1008.4
20260505173304 24 194 9.7 20.9 0.00 0.00 0.00 73 1008.5
20260505171804 23 197 8.0 19.3 0.00 0.00 0.00 75 1008.6
20260505170804 23 165 8.0 20.9 0.00 0.00 0.00 77 1008.7
20260505170304 23 178 8.0 22.5 0.00 0.00 0.00 77 1008.7
20260505164804 22 185 4.8 12.9 0.00 0.00 0.00 78 1008.7
20260505163804 22 165 9.7 19.3 0.00 0.00 0.00 78 1008.7
20260505161804 22 193 11.3 22.5 0.00 0.00 0.00 78 1008.5
20260505160804 22 173 11.3 22.5 0.00 0.00 0.00 79 1008.5
20260505160304 22 169 8.0 20.9 0.00 0.00 0.00 80 1008.6
20260505153304 21 170 6.4 14.5 0.00 0.00 0.00 80 1008.8
20260505151804 21 158 6.4 9.7 0.00 0.00 0.00 80 1008.8
20260505151304 21 180 9.7 12.9 0.00 0.00 0.00 80 1008.7
20260505150805 21 178 9.7 16.1 0.00 0.00 0.00 80 1008.6
20260505150304 21 185 11.3 25.7 0.00 0.00 0.00 80 1008.6
20260505140304 21 175 9.7 19.3 0.00 0.00 0.00 81 1008.3
20260505130304 21 173 9.7 22.5 0.00 0.00 0.00 81 1007.8
20260505124804 21 174 9.7 14.5 0.00 0.00 0.00 81 1007.6
20260505124304 21 165 9.7 19.3 0.00 0.00 0.00 81 1007.6
20260505123804 21 177 9.7 20.9 0.00 0.00 0.00 81 1007.5
20260505121804 21 196 12.9 20.9 0.00 0.00 0.00 81 1007.2
20260505121304 21 179 9.7 19.3 0.00 0.00 0.00 81 1007.0
20260505120804 21 185 11.3 24.1 0.00 0.00 0.00 81 1006.9
20260505120305 21 185 8.0 22.5 0.00 0.00 0.00 81 1006.9
20260505114804 21 180 9.7 19.3 0.00 0.00 0.00 81 1006.7
20260505113804 21 183 8.0 12.9 0.00 0.00 0.00 81 1006.8
20260505113304 21 177 9.7 25.7 0.00 0.00 0.00 81 1006.8
20260505111804 21 164 11.3 22.5 0.00 0.00 0.00 81 1007.0
20260505111304 21 181 9.7 24.1 0.00 0.00 0.00 81 1006.7
20260505110804 21 176 9.7 16.1 0.00 0.00 0.00 81 1006.7
20260505110304 21 170 11.3 22.5 0.00 0.00 0.00 81 1006.8